Regional Weather Roundup
Issued by NWS

Home | Current Version | Previous Version | Text Only | Print | Product List | Glossary On
Versions: 1 2 3 4 5 6 7 8 9 10 11 12 13 14 15 16 17 18 19 20 21 22 23 24 25 26 27 28 29 30 31 32 33 34 35 36 37 38 39 40 41 42 43 44 45 46 47 48 49 50
000
ASUS46 KSEW 221910
RWRWA

WASHINGTON REGIONAL WEATHER ROUNDUP
NATIONAL WEATHER SERVICE SEATTLE WA
1200 PM PDT FRI AUG 22 2014

NOTE:"FAIR" INDICATES FEW OR NO CLOUDS BELOW 12,000 FEET WITH NO
SIGNIFICANT WEATHER AND/OR OBSTRUCTIONS TO VISIBILITY.

WAZ505-507>509-222000-
SEATTLE, TACOMA, EVERETT, AND VICINITY

CITY           SKY/WX    TMP DP  RH WIND       PRES   REMARKS
EVERETT        SUNNY     64  52  64 VRB3      30.08S
BOEING FIELD   PTSUNNY   68  52  56 NW6       30.06F
RENTON         CLOUDY    66  55  67 NW6       30.06S
SEATAC AIRPORT MOSUNNY   69  52  54 N9        30.08S
JBLM-MCCHORD   CLOUDY    69  53  56 NE8       30.07S
PUYALLUP       NOT AVBL
JBLM-FT LEWIS  MOSUNNY   70  53  55 VRB7      30.06F
TACOMA NARROWS MOSUNNY   67  52  58 VRB6      30.07S
$$

WAZ001-503-506-510-514-515-222000-
NORTH INTERIOR

CITY           SKY/WX    TMP DP  RH WIND       PRES   REMARKS
BELLINGHAM     MOSUNNY   67  57  70 VRB5      30.06S
FRIDAY HARBOR  SUNNY     68  57  68 N8        30.08S
EASTSOUND      SUNNY     66  59  77 N6        30.05S
PORT ANGELES   SUNNY     69  53  56 NE6       30.08S
NAS WHIDBEY    PTSUNNY   59  52  77 W9        30.08S
BURLINGTON     MOSUNNY   68  57  68 W5        30.07S
$$

WAZ020-022-039-040-504-511-512-222000-
SOUTHWEST INTERIOR

CITY           SKY/WX    TMP DP  RH WIND       PRES   REMARKS
SHELTON        SUNNY     70  52  52 CALM      30.05S
OLYMPIA        MOSUNNY   69  52  54 E6        30.07S
CHEHALIS       FAIR      70  57  64 CALM      30.07S
KELSO          SUNNY     68  54  60 N6        30.09S
VANCOUVER      PTSUNNY   70  54  56 VRB5      30.04S
SCAPPOOSE, OR  SUNNY     72  56  57 E9        30.03F
PORTLAND, OR   MOSUNNY   71  54  54 VRB6      30.05S
$$

WAZ021-516-517-222000-
WASHINGTON COAST

CITY           SKY/WX    TMP DP  RH WIND       PRES   REMARKS
FORKS          SUNNY     63  56  78 W8        30.07S
HOQUIAM        CLOUDY    58  55  90 SW8       30.09S
ASTORIA, OR    CLOUDY    63  57  81 W12       30.08R
$$

WAZ019-023-024-040-518-519-222000-
CASCADE MOUNTAINS AND COLUMBIA GORGE

CITY           SKY/WX    TMP DP  RH WIND       PRES   REMARKS
STAMPEDE PASS  NOT AVBL
TROUTDALE, OR  SUNNY     71  53  52 VRB5      30.03F
THE DALLES, OR SUNNY     80  47  31 NW9       29.95F
$$

WAZ026-027-041>044-520-521-222000-
EAST SLOPES

CITY           SKY/WX    TMP DP  RH WIND       PRES   REMARKS
OMAK           PTSUNNY   71  54  54 N15G24    30.03F
WENATCHEE      MOSUNNY   74  46  36 W9        29.99F
ELLENSBURG     SUNNY     77  46  33 S6        29.99F
YAKIMA         PTSUNNY   74  47  38 W3        29.98F
$$

WAZ028-034-035-222000-
COLUMBIA BASIN

CITY           SKY/WX    TMP DP  RH WIND       PRES   REMARKS
EPHRATA        MOSUNNY   77  48  35 NE12G21   29.96F
MOSES LAKE     PTSUNNY   77  48  35 N15G22    29.96F
PASCO          MOSUNNY   78  53  41 NW12G22   29.94F
HERMISTON, OR  SUNNY     75  50  41 W6        29.96S
$$

WAZ036>038-222000-
NORTHEAST WASHINGTON

CITY           SKY/WX    TMP DP  RH WIND       PRES   REMARKS
SPOKANE GEIGER PTSUNNY   66  53  63 VRB5      30.02S
SPOKANE FELTS  PTSUNNY   67  53  61 CALM      30.02S
FAIRCHILD AFB  PTSUNNY   66  51  57 E10       30.02S
COEURDALENE,ID PTSUNNY   68  52  56 N18       30.01S
DEER PARK      CLOUDY    65  53  65 N6        30.03R
$$

WAZ029>033-222000-
SOUTHEAST WASHINGTON

CITY           SKY/WX    TMP DP  RH WIND       PRES   REMARKS
PULLMAN        MOSUNNY   72  43  35 VRB5      29.99F
LEWISTON, ID   PTSUNNY   74  47  38 VRB5      29.95F
WALLA WALLA    MOSUNNY   72  51  47 SW13      29.97F
PENDLETON, OR  MOSUNNY   72  46  39 NW9       29.97F
$$


USA.gov is the U.S. government's official web portal to all federal, state and local government web resources and services.